[[{"header":{"parameterUnit":"m.s-1","parameterCategory":1,"la1":30.2991,"la2":30.254,"lo1":-89.0895,"lo2":-89.0444,"dy":0.0017,"dx":0.0017,"nx":28,"ny":28,"refTime":"2024-05-30T09:00:00:Z","depth":0,"parameterNumber":2,"parameterNumberName":"U-component_of_WINDS"},"data":[0,0,0,0,0,0,0,0,0,0,0,0,0,0,0,0,0,0,0,0,0,0,0,0,0,0,0,0,0,0,0,0,0,0,0,0,0,0,0,0,0,0,0,0,0,0,0,0,0,0,0,0,0,0,0,0,0,0,-1.334,-1.3339,0,-1.3271,-1.327,-1.327,-1.3163,-1.3162,-1.316,-1.3158,-1.309,-1.309,-1.309,0,0,0,0,0,0,0,0,0,0,0,0,0,-1.338,-1.338,-1.334,-1.3339,-1.3338,-1.3271,-1.327,-1.3269,-1.3164,-1.3162,-1.3159,-1.3157,-1.309,-1.309,-1.309,0,0,0,0,0,0,0,0,0,0,0,0,0,-1.3342,-1.338,-1.334,-1.3277,-1.3271,-1.3272,-1.327,-1.3269,-1.3164,-1.3161,-1.3159,-1.3156,-1.309,-1.309,-1.309,-1.3147,0,0,-1.309,-1.309,0,0,0,0,0,0,0,0,-1.3345,-1.3341,-1.3287,-1.3281,-1.3274,-1.3223,-1.326,-1.3228,-1.3165,-1.3205,-1.3158,-1.3155,-1.3137,-1.3133,-1.3126,-1.3144,-1.3141,-1.309,-1.309,-1.309,-1.309,0,0,0,0,0,0,0,-1.3347,-1.3343,-1.3313,-1.3287,-1.3279,-1.3253,-1.3244,-1.3253,-1.3188,-1.3201,-1.3193,-1.3187,-1.3133,-1.3126,-1.3124,-1.314,-1.309,-1.309,-1.309,-1.309,-1.32,-1.3202,0,0,0,0,0,0,-1.3359,-1.3346,-1.3315,-1.331,-1.3303,-1.3254,-1.3245,-1.3242,-1.3187,-1.3176,-1.3189,-1.3182,-1.3128,-1.3124,-1.3121,-1.3183,-1.309,-1.309,-1.309,-1.3197,-1.32,-1.3203,0,0,0,0,0,0,-1.336,-1.3357,-1.3317,-1.3326,-1.3319,-1.3257,-1.3255,-1.3243,-1.3236,-1.3178,-1.3166,-1.3195,-1.3125,-1.3121,-1.3141,-1.3179,-1.309,-1.309,-1.3193,-1.3198,-1.3202,-1.3309,0,0,0,0,0,0,-1.3362,-1.3358,-1.3379,-1.3327,-1.3319,-1.3339,-1.3257,-1.3243,-1.3236,-1.3226,-1.318,-1.317,-1.3123,-1.3141,-1.3141,-1.3178,-1.309,-1.3189,-1.3195,-1.32,-1.3302,-1.3316,-1.3329,0,0,0,0,0,-1.3364,-1.3413,-1.3381,-1.3377,-1.3344,-1.3341,-1.3336,-1.3281,-1.324,-1.326,-1.3223,-1.3171,-1.3175,-1.3144,-1.3143,-1.318,-1.3187,-1.3194,-1.32,-1.3295,-1.3313,-1.3329,0,0,0,0,0,0,-1.3471,-1.3405,-1.3369,-1.3402,-1.3378,-1.3323,-1.3347,-1.3302,-1.3289,-1.328,-1.3212,-1.3203,-1.3231,-1.3208,-1.3174,-1.3232,-1.3173,-1.318,-1.3246,-1.3263,-1.3276,-1.3281,-1.309,0,0,0,0,0,-1.3499,-1.3502,-1.3443,-1.3479,-1.3468,-1.341,-1.3407,-1.3366,-1.3339,-1.3328,-1.3292,-1.3268,-1.3263,-1.3262,-1.3255,-1.3298,-1.3286,-1.3323,-1.3336,-1.3348,-1.3354,-1.3374,-1.339,-1.3225,-1.3225,-1.3225,0,0,-1.3556,-1.352,-1.3526,-1.3499,-1.3476,-1.348,-1.3402,-1.3411,-1.3414,-1.3329,-1.3345,-1.3318,-1.3287,-1.3318,-1.333,-1.3299,-1.3397,-1.3356,-1.3366,-1.3366,-1.3383,-1.3398,-1.3412,-1.323,-1.3229,-1.3228,0,0,-1.3662,-1.3635,-1.3661,-1.3639,-1.3604,-1.3565,-1.3571,-1.3523,-1.3501,-1.3516,-1.3453,-1.3456,-1.345,-1.3429,-1.3418,-1.3516,-1.3468,-1.3516,-1.3588,-1.3608,-1.3621,-1.3632,-1.3666,-1.3679,-1.3523,-1.3523,-1.3523,0,-1.3737,-1.3741,-1.3681,-1.3692,-1.3683,-1.3606,-1.3631,-1.3613,-1.3578,-1.3573,-1.3539,-1.3529,-1.3502,-1.3528,-1.3551,-1.3545,-1.355,-1.3521,-1.3624,-1.3634,-1.3644,-1.3676,-1.3689,-1.3529,-1.3528,-1.3528,-1.3527,0,-1.3835,-1.3839,-1.3865,-1.3831,-1.3824,-1.3844,-1.3786,-1.3786,-1.3746,-1.3711,-1.3726,-1.3692,-1.3676,-1.3679,-1.364,-1.3698,-1.368,-1.3636,-1.3575,-1.3666,-1.3695,-1.3707,-1.3537,-1.3535,-1.3534,-1.3532,0,0,-1.4007,-1.394,-1.395,-1.3934,-1.3889,-1.3891,-1.3907,-1.389,-1.3891,-1.387,-1.3881,-1.3878,-1.3836,-1.3824,-1.3782,-1.38,-1.3879,-1.3753,-1.3751,-1.3777,-1.394,-1.3973,-1.3988,-1.3847,-1.3849,-1.385,-1.3942,0,-1.4104,-1.4125,-1.4071,-1.4107,-1.4109,-1.4036,-1.4049,-1.4024,-1.3991,-1.3989,-1.3953,-1.3951,-1.3897,-1.3889,-1.3903,-1.3866,-1.391,-1.3859,-1.3856,-1.3857,-1.3865,-1.4003,-1.4038,-1.4126,-1.3953,-1.3955,-1.3956,0,-1.4219,-1.4202,-1.4238,-1.4191,-1.419,-1.4203,-1.4183,-1.4181,-1.4151,-1.4126,-1.4112,-1.4063,-1.4075,-1.4017,-1.4032,-1.3999,-1.3994,-1.3976,-1.3978,-1.3975,-1.3912,-1.4003,-1.4153,-1.4166,-1.3973,-1.3972,-1.3971,0,-1.4339,-1.4326,-1.4345,-1.4334,-1.428,-1.429,-1.4268,-1.4235,-1.4228,-1.4211,-1.4206,-1.4191,-1.4183,-1.4172,-1.412,-1.4083,-1.4142,-1.408,-1.4121,-1.4122,-1.4136,-1.4135,-1.4286,-1.4135,-1.4135,-1.4134,-1.4134,0,-1.4452,-1.4477,-1.4398,-1.441,-1.4436,-1.4373,-1.44,-1.4371,-1.4341,-1.4346,-1.4283,-1.4289,-1.4221,-1.4219,-1.4179,-1.4197,-1.4194,-1.4174,-1.4163,-1.4179,-1.4182,-1.4175,-1.4167,-1.4138,-1.4137,-1.4136,-1.4136,0,-1.459,-1.4539,-1.4555,-1.4502,-1.449,-1.4511,-1.4465,-1.4474,-1.4437,-1.4444,-1.4442,-1.4385,-1.438,-1.4327,-1.4311,-1.4284,-1.4317,-1.4295,-1.4328,-1.432,-1.4364,-1.436,-1.4514,-1.4531,-1.4371,-1.4372,-1.4374,0,-1.4665,-1.4682,-1.4631,-1.4629,-1.461,-1.4609,-1.4601,-1.4541,-1.4536,-1.4502,-1.4515,-1.4504,-1.4493,-1.4488,-1.4445,-1.4432,-1.4408,-1.4463,-1.4406,-1.4421,-1.4408,-1.4407,-1.4408,-1.4475,-1.4477,-1.4479,-1.4481,0,-1.4803,-1.4777,-1.4768,-1.4751,-1.4744,-1.4728,-1.4708,-1.471,-1.4643,-1.4641,-1.4634,-1.4626,-1.4608,-1.4599,-1.4578,-1.4555,-1.4507,-1.4499,-1.4507,-1.4524,-1.4542,-1.4532,-1.436,-1.4496,-1.4494,-1.4493,-1.4492,-1.4492,-1.4911,-1.4922,-1.4888,-1.488,-1.4859,-1.4841,-1.4846,-1.481,-1.4804,-1.4785,-1.475,-1.4748,-1.4717,-1.4684,-1.4665,-1.4663,-1.4635,-1.4648,-1.465,-1.4654,-1.4663,-1.4543,-1.466,-1.4659,-1.4659,-1.4658,-1.4658,0,-1.5044,-1.5018,-1.5012,-1.4986,-1.498,-1.4935,-1.491,-1.4908,-1.4908,-1.4882,-1.4872,-1.4865,-1.4855,-1.4811,-1.4797,-1.4804,-1.4781,-1.4802,-1.48,-1.4795,-1.469,-1.4683,-1.482,-1.482,-1.482,-1.482,-1.482,-1.482,-1.5113,-1.5129,-1.5099,-1.5104,-1.5078,-1.5076,-1.5066,-1.5049,-1.5028,-1.5023,-1.5014,-1.4986,-1.4953,-1.4935,-1.4924,-1.4911,-1.4908,-1.4937,-1.4917,-1.4819,-1.4803,-1.4788,-1.4781,-1.4937,-1.4937,-1.5022,-1.5023,-1.5023]},{"header":{"parameterUnit":"m.s-1","parameterCategory":1,"la1":30.2991,"la2":30.254,"lo1":-89.0895,"lo2":-89.0444,"dy":0.0017,"dx":0.0017,"nx":28,"ny":28,"refTime":"2024-05-30T09:00:00:Z","depth":0,"parameterNumber":3,"parameterNumberName":"V-component_of_WINDS"},"data":[0,0,0,0,0,0,0,0,0,0,0,0,0,0,0,0,0,0,0,0,0,0,0,0,0,0,0,0,0,0,0,0,0,0,0,0,0,0,0,0,0,0,0,0,0,0,0,0,0,0,0,0,0,0,0,0,0,0,-1.8488,-1.8489,0,-1.8602,-1.8604,-1.8605,-1.8684,-1.8685,-1.8686,-1.8686,-1.8796,-1.8799,-1.8801,0,0,0,0,0,0,0,0,0,0,0,0,0,-1.8331,-1.8334,-1.8488,-1.8489,-1.8491,-1.8602,-1.8604,-1.8605,-1.8684,-1.8685,-1.8686,-1.8686,-1.8796,-1.8798,-1.8801,0,0,0,0,0,0,0,0,0,0,0,0,0,-1.8417,-1.8334,-1.8488,-1.8544,-1.855,-1.8602,-1.8604,-1.8606,-1.8684,-1.8685,-1.8686,-1.8687,-1.8795,-1.8798,-1.8802,-1.8805,0,0,-1.8812,-1.8814,0,0,0,0,0,0,0,0,-1.8412,-1.8423,-1.8534,-1.854,-1.8547,-1.863,-1.8589,-1.8672,-1.8684,-1.8633,-1.8686,-1.8687,-1.874,-1.8748,-1.8767,-1.881,-1.8815,-1.8813,-1.8815,-1.8816,-1.8817,0,0,0,0,0,0,0,-1.8406,-1.8419,-1.8533,-1.8536,-1.8543,-1.8561,-1.8574,-1.8605,-1.8679,-1.8637,-1.8643,-1.8656,-1.8744,-1.8764,-1.877,-1.8816,-1.8813,-1.8816,-1.8818,-1.8819,-1.8865,-1.8864,0,0,0,0,0,0,-1.8392,-1.8413,-1.8529,-1.8536,-1.8481,-1.8563,-1.8578,-1.8602,-1.8679,-1.8692,-1.8655,-1.866,-1.8757,-1.8766,-1.8774,-1.8782,-1.8816,-1.882,-1.8822,-1.8866,-1.8865,-1.8864,0,0,0,0,0,0,-1.8389,-1.8402,-1.8525,-1.8477,-1.8493,-1.8565,-1.8592,-1.8604,-1.8624,-1.8693,-1.8706,-1.8663,-1.8758,-1.877,-1.8797,-1.8786,-1.8821,-1.8824,-1.8867,-1.8865,-1.8864,-1.8796,0,0,0,0,0,0,-1.8384,-1.84,-1.8404,-1.8476,-1.8496,-1.8547,-1.8591,-1.8606,-1.8631,-1.8638,-1.8703,-1.8715,-1.876,-1.8791,-1.88,-1.8792,-1.8827,-1.8868,-1.8866,-1.8865,-1.8799,-1.8793,-1.8787,0,0,0,0,0,-1.8378,-1.8379,-1.8404,-1.8417,-1.8502,-1.8546,-1.8557,-1.861,-1.863,-1.8633,-1.8677,-1.8713,-1.8787,-1.8793,-1.8804,-1.8797,-1.8869,-1.8867,-1.8865,-1.8802,-1.8794,-1.8787,0,0,0,0,0,0,-1.8301,-1.839,-1.8418,-1.8443,-1.8486,-1.8559,-1.8565,-1.86,-1.8638,-1.8642,-1.8705,-1.8719,-1.8739,-1.8771,-1.8776,-1.8803,-1.8832,-1.8832,-1.8781,-1.8773,-1.8767,-1.8758,-1.883,0,0,0,0,0,-1.8288,-1.8319,-1.8393,-1.8407,-1.8428,-1.8492,-1.8514,-1.8551,-1.8598,-1.8617,-1.8663,-1.8705,-1.8738,-1.8758,-1.8792,-1.8805,-1.8819,-1.8806,-1.8799,-1.8793,-1.8792,-1.8799,-1.8793,-1.8857,-1.8857,-1.8857,0,0,-1.8259,-1.8311,-1.8326,-1.8393,-1.8432,-1.846,-1.8507,-1.8535,-1.8556,-1.862,-1.8649,-1.8684,-1.8735,-1.8755,-1.8766,-1.8782,-1.8778,-1.8791,-1.8786,-1.8787,-1.8796,-1.879,-1.8785,-1.8856,-1.8856,-1.8856,0,0,-1.8221,-1.8264,-1.828,-1.8318,-1.8377,-1.8419,-1.8423,-1.8491,-1.8517,-1.8548,-1.8596,-1.862,-1.8676,-1.871,-1.8734,-1.8708,-1.8742,-1.8718,-1.8683,-1.8689,-1.8684,-1.868,-1.8668,-1.8664,-1.8716,-1.8716,-1.8716,0,-1.8177,-1.8223,-1.8283,-1.8309,-1.8335,-1.8398,-1.8413,-1.8446,-1.8511,-1.8527,-1.8545,-1.8616,-1.8655,-1.8682,-1.8676,-1.8695,-1.8699,-1.8709,-1.8681,-1.8677,-1.8674,-1.8663,-1.8659,-1.8713,-1.8713,-1.8714,-1.8714,0,-1.8165,-1.8196,-1.8202,-1.8265,-1.8293,-1.8313,-1.8374,-1.8395,-1.843,-1.847,-1.8498,-1.8548,-1.8592,-1.8602,-1.8635,-1.8633,-1.8641,-1.8669,-1.8699,-1.8663,-1.8654,-1.8651,-1.8708,-1.8709,-1.871,-1.8711,0,0,-1.808,-1.8177,-1.8178,-1.8207,-1.8276,-1.83,-1.8322,-1.8367,-1.8382,-1.8425,-1.8443,-1.8489,-1.8515,-1.8543,-1.8581,-1.8587,-1.856,-1.8614,-1.8616,-1.86,-1.8558,-1.8534,-1.8529,-1.8584,-1.8584,-1.8583,-1.8553,0,-1.805,-1.8094,-1.8149,-1.8174,-1.8202,-1.8262,-1.828,-1.8323,-1.8361,-1.8388,-1.843,-1.846,-1.8494,-1.851,-1.8519,-1.8562,-1.8552,-1.8565,-1.8598,-1.8599,-1.8581,-1.8525,-1.8501,-1.8469,-1.855,-1.8549,-1.8549,0,-1.802,-1.8062,-1.809,-1.8156,-1.817,-1.8186,-1.8231,-1.8258,-1.8307,-1.8334,-1.8365,-1.8406,-1.843,-1.8458,-1.8489,-1.8497,-1.8514,-1.8537,-1.8537,-1.8539,-1.857,-1.8523,-1.8461,-1.8455,-1.8545,-1.8545,-1.8545,0,-1.7952,-1.8015,-1.804,-1.8063,-1.8141,-1.8151,-1.8183,-1.8234,-1.8257,-1.8296,-1.8311,-1.8352,-1.8373,-1.8402,-1.8452,-1.8469,-1.8477,-1.8511,-1.8497,-1.8496,-1.8494,-1.8493,-1.843,-1.8509,-1.851,-1.851,-1.851,0,-1.7911,-1.7925,-1.801,-1.8025,-1.8041,-1.8104,-1.8118,-1.8156,-1.82,-1.8221,-1.8275,-1.8293,-1.836,-1.8385,-1.8425,-1.8443,-1.8453,-1.8473,-1.8483,-1.8467,-1.8464,-1.8476,-1.8479,-1.8508,-1.8509,-1.8509,-1.8509,0,-1.7836,-1.7894,-1.7925,-1.7997,-1.8015,-1.8024,-1.8084,-1.8099,-1.8141,-1.8167,-1.8177,-1.8241,-1.8273,-1.8328,-1.8375,-1.8402,-1.8411,-1.843,-1.8395,-1.8401,-1.8383,-1.8383,-1.8324,-1.8319,-1.8403,-1.8403,-1.8402,0,-1.7805,-1.7817,-1.7891,-1.7911,-1.7942,-1.7972,-1.7996,-1.8058,-1.8081,-1.8138,-1.8145,-1.8183,-1.8215,-1.8264,-1.8313,-1.8349,-1.8367,-1.8344,-1.8373,-1.8355,-1.8363,-1.8361,-1.8361,-1.8336,-1.8335,-1.8334,-1.8334,0,-1.7742,-1.777,-1.7805,-1.7849,-1.7878,-1.7915,-1.7955,-1.7967,-1.8037,-1.8059,-1.8095,-1.812,-1.817,-1.8205,-1.8248,-1.8279,-1.8316,-1.8325,-1.8323,-1.8305,-1.8283,-1.8292,-1.8374,-1.8325,-1.8326,-1.8326,-1.8327,-1.8327,-1.7686,-1.77,-1.7754,-1.779,-1.7827,-1.7863,-1.788,-1.7925,-1.7956,-1.8002,-1.8037,-1.8068,-1.8116,-1.8179,-1.8207,-1.8231,-1.8248,-1.8247,-1.8246,-1.8243,-1.8236,-1.8282,-1.824,-1.824,-1.824,-1.8241,-1.8241,0,-1.7624,-1.7662,-1.7695,-1.775,-1.7778,-1.7815,-1.786,-1.788,-1.7908,-1.7951,-1.7983,-1.8022,-1.8056,-1.8109,-1.8146,-1.8155,-1.8173,-1.8163,-1.8161,-1.8167,-1.822,-1.8216,-1.8147,-1.8147,-1.8147,-1.8147,-1.8147,-1.8147,-1.7594,-1.7618,-1.7652,-1.7694,-1.7732,-1.7765,-1.7788,-1.782,-1.7854,-1.7896,-1.7926,-1.7961,-1.8006,-1.8048,-1.808,-1.8095,-1.8104,-1.8088,-1.8107,-1.8155,-1.8163,-1.8171,-1.8168,-1.809,-1.809,-1.8052,-1.8051,-1.8051]}]]